GW3562 Weather Reports


time (UTC)temp
F
wind
direction
speed
knots
gust
knots
rain 1hr
in
rain 24hr
in
rain mn
in
humidity
%
barometer
mb
20260504110627 47 310 0.9 3.5 0.00 0.03 0.03 82 1009.5
20260504110129 47 320 0.0 5.2 0.00 0.03 0.03 83 1009.6
20260504100136 45 327 0.0 0.9 0.03 0.03 0.03 90 1009.8
20260504090141 45 164 0.0 5.2 0.00 0.00 0.00 83 1010.0
20260504090104 45 183 0.0 5.2 0.00 0.00 0.00 83 1010.6
20260504081614 45 237 0.0 3.5 0.00 0.00 0.00 80 1010.3
20260504081533 45 237 0.0 3.5 0.00 0.00 0.00 80 1010.9
20260504081123 45 347 0.0 0.9 0.00 0.00 0.00 79 1010.2
20260504080636 45 317 0.0 0.9 0.00 0.00 0.00 79 1010.2
20260504070121 45 280 0.0 2.6 0.00 0.00 0.00 75 1010.3
20260504060132 43 219 0.0 0.0 0.00 0.00 0.00 72 1010.7
20260504050614 41 190 0.0 0.0 0.00 0.00 0.00 73 1010.7
20260504050115 40 187 0.0 0.9 0.00 0.00 0.00 76 1010.7
20260504045703 39 187 0.0 0.9 0.00 0.00 0.00 77 1010.7
20260504045125 38 262 0.0 0.0 0.00 0.00 0.00 82 1010.8
20260504044622 38 261 0.0 3.5 0.00 0.00 0.00 82 1010.8
20260504044549 37 261 0.0 3.5 0.00 0.00 0.00 82 1011.5
20260504044134 38 261 0.0 3.5 0.00 0.00 0.00 82 1010.9
20260504043619 37 246 0.0 0.0 0.00 0.00 0.00 82 1010.9
20260504043135 37 245 0.0 0.0 0.00 0.00 0.00 83 1010.9
20260504043106 37 245 0.0 0.0 0.00 0.00 0.00 83 1011.7
20260504042620 37 247 0.0 0.0 0.00 0.00 0.00 83 1011.0
20260504042127 37 332 0.0 0.0 0.00 0.00 0.00 83 1011.0
20260504041614 37 331 0.0 0.0 0.00 0.00 0.00 81 1011.0
20260504041541 36 330 0.0 0.0 0.00 0.00 0.00 81 1011.7
20260504041123 37 330 0.0 0.0 0.00 0.00 0.00 81 1011.1
20260504040616 36 330 0.0 0.0 0.00 0.00 0.00 81 1011.1
20260504040122 36 330 0.0 0.0 0.00 0.00 0.00 81 1011.1
20260504040033 36 330 0.0 0.0 0.00 0.00 0.00 81 1011.9
20260504035621 36 330 0.0 0.0 0.00 0.00 0.00 81 1011.1
20260504035125 36 330 0.0 0.0 0.00 0.00 0.00 81 1011.1
20260504034617 36 330 0.0 0.0 0.00 0.00 0.00 81 1011.1
20260504034507 36 330 0.0 0.0 0.00 0.00 0.00 81 1011.8
20260504034128 36 330 0.0 0.0 0.00 0.00 0.00 79 1011.1
20260504033629 37 330 0.0 0.0 0.00 0.00 0.00 78 1011.0
20260504033151 37 330 0.0 0.0 0.00 0.00 0.00 78 1011.1
20260504033028 36 330 0.0 0.0 0.00 0.00 0.00 78 1011.8
20260504032619 37 330 0.0 0.0 0.00 0.00 0.00 77 1011.0
20260504032128 37 330 0.0 0.0 0.00 0.00 0.00 75 1011.0
20260504031526 37 330 0.0 0.0 0.00 0.00 0.00 74 1011.8
20260504031117 38 330 0.0 0.0 0.00 0.00 0.00 73 1011.1
20260504030625 38 330 0.0 0.0 0.00 0.00 0.00 73 1011.1
20260504030139 38 330 0.0 0.0 0.00 0.00 0.00 73 1011.1
20260504030014 38 330 0.0 0.0 0.00 0.00 0.00 72 1011.9
20260504025621 38 330 0.0 0.0 0.00 0.00 0.00 72 1011.1
20260504025120 39 330 0.0 0.0 0.00 0.00 0.00 72 1011.1
20260504024622 39 330 0.0 0.0 0.00 0.00 0.00 72 1011.2
20260504024510 38 330 0.0 0.0 0.00 0.00 0.00 72 1011.9
20260504024123 39 330 0.0 0.0 0.00 0.00 0.00 71 1011.3
20260504023622 39 330 0.0 0.0 0.00 0.00 0.00 70 1011.3
20260504023123 40 330 0.0 0.0 0.00 0.00 0.00 69 1011.4
20260504023012 39 330 0.0 0.0 0.00 0.00 0.00 69 1012.2
20260504022619 40 330 0.0 0.0 0.00 0.00 0.00 68 1011.4
20260504022121 40 330 0.0 0.0 0.00 0.00 0.00 68 1011.4
20260504021609 41 330 0.0 0.0 0.00 0.00 0.00 66 1011.4
20260504021514 40 330 0.0 0.0 0.00 0.00 0.00 66 1012.2
20260504021116 41 330 0.0 0.0 0.00 0.00 0.00 66 1011.4
20260504020615 41 330 0.0 0.0 0.00 0.00 0.00 64 1011.4
20260504020136 41 330 0.0 0.0 0.00 0.00 0.00 64 1011.4
20260504020048 41 330 0.0 0.0 0.00 0.00 0.00 65 1012.2
20260504015614 41 330 0.0 0.0 0.00 0.00 0.00 64 1011.4
20260504015117 41 330 0.0 0.0 0.00 0.00 0.00 64 1011.4
20260504014644 41 331 0.0 0.0 0.00 0.00 0.00 64 1011.5
20260504014537 41 330 0.0 0.0 0.00 0.00 0.00 64 1012.2
20260504014116 42 344 0.0 0.0 0.00 0.00 0.00 63 1011.6
20260504013636 42 345 0.0 0.0 0.00 0.00 0.00 63 1011.5
20260504013120 42 345 0.0 0.0 0.00 0.00 0.00 62 1011.5
20260504013022 41 345 0.0 0.0 0.00 0.00 0.00 62 1012.2
20260504012624 42 345 0.0 0.0 0.00 0.00 0.00 63 1011.4
20260504012127 42 345 0.0 0.0 0.00 0.00 0.00 62 1011.4
20260504011639 42 345 0.0 0.0 0.00 0.00 0.00 61 1011.3
20260504011602 42 345 0.0 0.0 0.00 0.00 0.00 61 1012.1
20260504011152 42 347 0.0 0.0 0.00 0.00 0.00 60 1011.3
20260504010631 43 347 0.0 0.0 0.00 0.00 0.00 61 1011.2
20260504010117 43 347 0.0 0.0 0.00 0.00 0.00 60 1011.2
20260504010033 42 347 0.0 0.0 0.00 0.00 0.00 60 1011.9
20260504005638 43 347 0.0 0.0 0.00 0.01 0.00 60 1011.1
20260504005112 43 347 0.0 0.0 0.00 0.01 0.00 59 1011.1
20260504004619 43 347 0.0 0.0 0.00 0.01 0.00 59 1011.0
20260504004516 43 347 0.0 0.0 0.00 0.01 0.00 59 1011.8
20260504004132 43 347 0.0 0.0 0.00 0.01 0.00 58 1011.0
20260504003624 44 347 0.0 0.0 0.00 0.01 0.00 58 1010.9
20260504003141 44 347 0.0 0.0 0.00 0.01 0.00 58 1011.0
20260504003101 43 347 0.0 0.0 0.00 0.01 0.00 58 1011.7
20260504002109 44 347 0.0 0.0 0.00 0.01 0.00 57 1010.9
20260504001615 45 347 0.0 0.0 0.00 0.01 0.00 56 1010.9
20260504001539 44 347 0.0 0.0 0.00 0.01 0.00 56 1011.7
20260504001123 45 347 0.0 0.0 0.00 0.01 0.00 56 1011.0
20260504000652 46 347 0.0 0.0 0.00 0.01 0.00 55 1010.9
20260504000201 46 347 0.0 0.0 0.00 0.01 0.00 54 1010.9
20260504000107 46 347 0.0 0.0 0.00 0.01 0.00 54 1011.6
20260503235623 46 347 0.0 0.0 0.00 0.02 0.00 54 1010.9
20260503235135 47 347 0.0 0.0 0.00 0.02 0.00 53 1010.9
20260503234620 47 347 0.0 0.0 0.00 0.02 0.00 53 1010.9
20260503234529 46 347 0.0 0.0 0.00 0.02 0.00 54 1011.6
20260503234118 47 347 0.0 0.0 0.00 0.02 0.00 55 1010.8
20260503233118 48 347 0.0 0.0 0.00 0.02 0.00 56 1010.7
20260503233005 47 347 0.0 0.0 0.00 0.02 0.00 55 1011.5
20260503232628 48 347 0.0 0.0 0.00 0.02 0.00 54 1010.7
20260503232131 48 347 0.0 0.0 0.00 0.02 0.00 54 1010.6
20260503231621 49 347 0.0 0.0 0.00 0.02 0.00 55 1010.7
20260503231540 48 347 0.0 0.0 0.00 0.02 0.00 54 1011.4
20260503231118 49 347 0.0 0.0 0.00 0.02 0.00 54 1010.7
20260503230618 49 347 0.0 0.0 0.00 0.02 0.00 51 1010.6
20260503230018 48 347 0.0 0.0 0.00 0.02 0.00 51 1011.4
20260503225634 49 347 0.0 0.0 0.00 0.02 0.00 51 1010.7
20260503225109 49 347 0.0 0.0 0.00 0.02 0.00 49 1010.8
20260503224604 49 348 0.0 0.0 0.00 0.02 0.00 53 1010.7
20260503224530 48 348 0.0 0.0 0.00 0.02 0.00 53 1011.4
20260503224146 48 348 0.0 0.0 0.00 0.02 0.00 49 1010.7
20260503223620 48 348 0.0 0.0 0.00 0.02 0.00 50 1010.7
20260503223111 48 348 0.0 0.0 0.00 0.02 0.00 49 1010.7
20260503223050 48 348 0.0 0.0 0.00 0.02 0.00 49 1011.5
20260503222622 48 348 0.0 3.5 0.00 0.02 0.00 49 1010.7
20260503222125 49 348 0.0 3.5 0.00 0.02 0.00 51 1010.7
20260503221628 49 344 0.0 0.0 0.00 0.02 0.00 50 1010.8
20260503221534 48 344 0.0 0.0 0.00 0.02 0.00 50 1011.5
20260503220618 49 344 0.0 7.0 0.00 0.02 0.00 49 1010.7
20260503220111 49 344 2.6 7.0 0.00 0.02 0.00 49 1010.7
20260503220010 48 337 0.9 7.0 0.00 0.02 0.00 49 1011.4
20260503215601 48 338 0.0 3.5 0.00 0.02 0.00 50 1010.6
20260503215146 48 338 0.0 0.0 0.00 0.02 0.00 50 1010.6
20260503214621 48 338 0.0 0.0 0.00 0.02 0.00 50 1010.6
20260503214535 48 338 0.0 0.0 0.00 0.02 0.00 51 1011.3
20260503214139 48 338 0.0 0.0 0.00 0.02 0.00 50 1010.6
20260503213618 48 337 0.0 0.0 0.00 0.02 0.00 50 1010.7
20260503213120 48 337 0.0 0.0 0.00 0.02 0.00 51 1010.7
20260503213054 48 337 0.0 0.0 0.00 0.02 0.00 51 1011.4
20260503212642 48 337 0.0 0.0 0.00 0.02 0.00 51 1010.6
20260503212146 48 337 0.0 4.3 0.00 0.02 0.00 50 1010.5
20260503211613 48 337 0.9 4.3 0.00 0.02 0.00 52 1010.6
20260503211525 48 337 0.0 4.3 0.00 0.02 0.00 52 1011.3
20260503211115 48 339 0.0 0.0 0.00 0.02 0.00 52 1010.6
20260503210621 48 339 0.0 0.9 0.00 0.02 0.00 52 1010.6
20260503210113 48 339 0.0 5.2 0.00 0.02 0.00 51 1010.6
20260503210007 48 341 0.0 5.2 0.00 0.02 0.00 51 1011.3
20260503205613 48 341 1.7 5.2 0.00 0.02 0.00 51 1010.6
20260503205148 48 341 0.0 0.0 0.00 0.02 0.00 51 1010.6
20260503204615 48 341 0.0 2.6 0.00 0.02 0.00 52 1010.6
20260503204539 48 341 0.0 2.6 0.00 0.02 0.00 52 1011.3
20260503204114 48 342 0.0 3.5 0.00 0.02 0.00 50 1010.7
20260503203612 48 344 0.0 7.0 0.00 0.02 0.00 51 1010.6
20260503203138 48 24 0.9 7.0 0.00 0.02 0.00 52 1010.6
20260503203018 48 334 0.0 6.1 0.00 0.02 0.00 52 1011.4
20260503202625 48 337 0.9 6.1 0.00 0.02 0.00 51 1010.6
20260503202122 48 344 0.0 7.8 0.00 0.02 0.00 52 1010.7
20260503201636 48 341 0.9 7.8 0.00 0.02 0.00 51 1010.7
20260503201545 48 341 0.9 7.8 0.00 0.02 0.00 51 1011.4
20260503201132 48 344 1.7 7.0 0.00 0.02 0.00 53 1010.7
20260503200617 48 341 0.0 6.1 0.00 0.02 0.00 52 1010.8
20260503200131 49 5 1.7 6.1 0.00 0.02 0.00 51 1010.9
20260503195621 49 3 0.0 0.0 0.00 0.02 0.00 53 1010.9
20260503195148 48 338 0.0 2.6 0.00 0.02 0.00 54 1010.9
20260503194613 48 326 0.0 6.1 0.00 0.02 0.00 53 1011.0
20260503194536 48 326 0.0 6.1 0.00 0.02 0.00 53 1011.8
20260503194114 48 348 0.0 7.0 0.00 0.02 0.00 55 1011.1
20260503193614 48 329 0.0 7.0 0.00 0.02 0.00 52 1011.2
20260503193111 48 337 0.0 11.3 0.00 0.02 0.00 54 1011.2
20260503193050 47 332 0.0 11.3 0.00 0.02 0.00 54 1012.0
20260503192615 48 342 1.7 13.9 0.00 0.02 0.00 53 1011.2
20260503192113 48 300 1.7 13.9 0.00 0.02 0.00 51 1011.3
20260503191610 48 351 3.5 9.6 0.00 0.02 0.00 51 1011.3
20260503191518 48 340 2.6 9.6 0.00 0.02 0.00 52 1012.1
20260503191127 48 331 1.7 9.6 0.00 0.02 0.00 55 1011.3
20260503190641 48 332 0.0 0.0 0.00 0.02 0.00 55 1011.4
20260503190117 47 33 0.0 7.0 0.00 0.02 0.00 56 1011.4
20260503185631 47 356 1.7 7.0 0.00 0.02 0.00 55 1011.5
20260503185112 46 37 0.0 0.0 0.00 0.02 0.00 57 1011.6
20260503184655 46 347 0.0 6.1 0.00 0.02 0.00 55 1011.6
20260503184631 46 353 0.0 8.7 0.00 0.02 0.00 55 1012.4
20260503184118 46 360 0.0 10.4 0.00 0.02 0.00 56 1011.6
20260503183622 46 313 3.5 10.4 0.00 0.02 0.00 54 1011.6
20260503183123 47 19 0.0 6.1 0.00 0.02 0.00 55 1011.6
20260503183030 46 22 0.0 6.1 0.00 0.02 0.00 55 1012.4
20260503182629 47 330 1.7 6.1 0.00 0.02 0.00 55 1011.6
20260503182143 47 335 0.0 5.2 0.00 0.02 0.00 56 1011.6
20260503181613 47 17 0.0 10.4 0.00 0.02 0.00 56 1011.6
20260503181547 46 26 0.0 10.4 0.00 0.02 0.00 56 1012.4
20260503181120 47 347 5.2 8.7 0.00 0.02 0.00 53 1011.7
20260503180624 47 355 1.7 8.7 0.00 0.02 0.00 54 1011.6
20260503180043 47 344 0.0 8.7 0.00 0.02 0.00 54 1012.4
20260503175625 47 351 0.9 8.7 0.00 0.02 0.00 56 1011.6
20260503175150 47 344 0.0 1.7 0.00 0.02 0.00 59 1011.7
20260503174629 47 31 0.0 1.7 0.00 0.02 0.00 58 1011.7
20260503174600 46 32 0.0 1.7 0.00 0.02 0.00 57 1012.4
20260503174117 47 68 0.0 7.8 0.00 0.02 0.00 58 1011.8
20260503173630 47 342 0.0 7.8 0.00 0.02 0.00 54 1011.7
20260503173142 47 360 0.0 6.1 0.00 0.02 0.00 55 1011.7
20260503173015 46 360 0.0 6.1 0.00 0.02 0.00 55 1012.5
20260503172637 47 344 0.9 7.0 0.00 0.02 0.00 54 1011.8
20260503172118 47 24 1.7 7.0 0.00 0.02 0.00 55 1011.8
20260503171624 47 349 0.9 10.4 0.00 0.02 0.00 59 1011.8
20260503171510 46 349 0.0 10.4 0.00 0.02 0.00 57 1012.5
20260503171125 46 357 0.0 10.4 0.00 0.02 0.00 57 1011.8
20260503170619 46 26 0.9 9.6 0.00 0.02 0.00 56 1011.9
20260503170121 47 337 4.3 9.6 0.00 0.02 0.00 55 1011.9
20260503160133 46 345 0.0 11.3 0.00 0.02 0.00 55 1012.2
20260503150141 48 322 2.6 7.8 0.00 0.02 0.00 59 1012.5
20260503140117 44 6 0.9 5.2 0.00 0.02 0.00 73 1013.0
20260503131127 43 19 0.9 3.5 0.00 0.02 0.00 82 1013.3
20260503130130 42 63 0.0 5.2 0.00 0.02 0.00 83 1013.3
20260503130109 42 61 0.0 5.2 0.00 0.02 0.00 83 1014.1
20260503120123 40 36 0.9 3.5 0.00 0.02 0.00 94 1013.4